Radiation Dose at Monitoring Post of Fukushima Daini Nuclear Power Station
Date,Time,MP-1(microSv/h),MP-2(microSv/h),MP-3(microSv/h),MP-4(microSv/h),MP-5(microSv/h),MP-6(microSv/h),MP-7(microSv/h),Wind Direction,Wind Velocity(m/s),Rain
2016/05/23,00:00,0.446,0.256,0.467,0.410,0.388,0.207,0.181,-,CALM,No
2016/05/23,00:10,0.443,0.258,0.466,0.413,0.392,0.208,0.180,-,CALM,No
2016/05/23,00:20,0.442,0.256,0.465,0.410,0.389,0.208,0.181,north,0.7,No
2016/05/23,00:30,0.444,0.257,0.467,0.411,0.390,0.208,0.181,north,0.6,No
2016/05/23,00:40,0.442,0.257,0.466,0.411,0.390,0.207,0.181,north-northwest,0.6,No
2016/05/23,00:50,0.445,0.256,0.469,0.410,0.388,0.207,0.180,northeast,1.9,No
2016/05/23,01:00,0.440,0.258,0.464,0.413,0.391,0.208,0.180,north,0.9,No
2016/05/23,01:10,0.446,0.257,0.466,0.410,0.389,0.207,0.180,north-northwest,0.6,No
2016/05/23,01:20,0.442,0.258,0.465,0.413,0.392,0.208,0.180,north-northwest,0.7,No
2016/05/23,01:30,0.445,0.258,0.466,0.410,0.389,0.208,0.180,north,1.0,No
2016/05/23,01:40,0.445,0.257,0.466,0.412,0.391,0.208,0.181,north,2.5,No
2016/05/23,01:50,0.444,0.258,0.466,0.412,0.389,0.208,0.181,north-northeast,2.3,No
2016/05/23,02:00,0.445,0.257,0.467,0.411,0.389,0.208,0.180,north-northeast,1.9,No
2016/05/23,02:10,0.443,0.257,0.465,0.415,0.391,0.208,0.180,north,2.2,No
2016/05/23,02:20,0.446,0.258,0.468,0.410,0.388,0.208,0.181,north,3.1,No
2016/05/23,02:30,0.443,0.257,0.466,0.411,0.392,0.208,0.181,north,2.2,No
2016/05/23,02:40,0.447,0.258,0.467,0.411,0.389,0.208,0.180,north,2.6,No
2016/05/23,02:50,0.443,0.257,0.468,0.413,0.392,0.207,0.181,north-northwest,2.2,No
2016/05/23,03:00,0.446,0.256,0.465,0.413,0.390,0.208,0.181,northwest,2.2,No
2016/05/23,03:10,0.443,0.257,0.470,0.409,0.388,0.208,0.180,northwest,1.8,No
2016/05/23,03:20,0.442,0.257,0.466,0.411,0.391,0.207,0.180,north,1.9,No
2016/05/23,03:30,0.447,0.259,0.470,0.409,0.388,0.207,0.183,north,1.5,No
2016/05/23,03:40,0.443,0.259,0.465,0.413,0.391,0.208,0.180,north-northeast,1.4,No
2016/05/23,03:50,0.445,0.256,0.468,0.410,0.388,0.208,0.180,east-northeast,1.4,No
2016/05/23,04:00,0.444,0.258,0.468,0.410,0.391,0.209,0.182,east-southeast,1.6,No
2016/05/23,04:10,0.444,0.258,0.466,0.412,0.390,0.208,0.180,southeast,1.1,No
2016/05/23,04:20,0.446,0.256,0.468,0.410,0.391,0.208,0.182,north,0.9,No
2016/05/23,04:30,0.442,0.260,0.464,0.412,0.391,0.208,0.182,north-northwest,1.9,No
2016/05/23,04:40,0.446,0.257,0.467,0.411,0.389,0.207,0.181,north-northwest,2.2,No
2016/05/23,04:50,0.443,0.258,0.466,0.412,0.392,0.208,0.182,north,2.2,No
2016/05/23,05:00,0.447,0.258,0.468,0.412,0.388,0.209,0.180,north,1.9,No
2016/05/23,05:10,0.444,0.256,0.467,0.411,0.390,0.208,0.182,north,1.6,No
2016/05/23,05:20,0.445,0.258,0.465,0.412,0.390,0.209,0.181,-,CALM,No
2016/05/23,05:30,0.444,0.256,0.468,0.409,0.391,0.208,0.181,south,0.5,No
2016/05/23,05:40,0.442,0.258,0.464,0.412,0.387,0.208,0.181,southwest,1.3,No
2016/05/23,05:50,0.446,0.257,0.470,0.409,0.393,0.208,0.180,south-southwest,1.8,No
2016/05/23,06:00,0.442,0.258,0.465,0.413,0.387,0.207,0.181,south,2.4,No
2016/05/23,06:10,0.445,0.255,0.468,0.412,0.389,0.208,0.181,south,2.2,No
2016/05/23,06:20,0.442,0.258,0.463,0.412,0.390,0.209,0.181,south-southeast,2.0,No
2016/05/23,06:30,0.446,0.256,0.469,0.412,0.389,0.207,0.180,south,1.0,No
2016/05/23,06:40,0.441,0.256,0.462,0.412,0.393,0.209,0.182,west,0.8,No
2016/05/23,06:50,0.446,0.259,0.467,0.409,0.388,0.209,0.181,west-northwest,1.4,No
2016/05/23,07:00,0.443,0.258,0.464,0.412,0.393,0.210,0.180,northwest,1.1,No
2016/05/23,07:10,0.445,0.255,0.458,0.407,0.389,0.208,0.181,north-northwest,0.9,No
2016/05/23,07:20,0.443,0.258,0.468,0.410,0.388,0.209,0.181,north,0.8,No
2016/05/23,07:30,0.440,0.257,0.463,0.411,0.392,0.208,0.180,north,0.9,No
2016/05/23,07:40,0.445,0.256,0.461,0.407,0.387,0.208,0.181,-,CALM,No
2016/05/23,07:50,0.441,0.255,0.465,0.408,0.388,0.208,0.183,south,0.7,No
2016/05/23,08:00,0.442,0.260,0.467,0.413,0.394,0.207,0.182,south,0.9,No
2016/05/23,08:10,0.446,0.259,0.463,0.410,0.390,0.209,0.181,-,CALM,No
2016/05/23,08:20,0.442,0.256,0.463,0.406,0.388,0.209,0.182,-,CALM,No
2016/05/23,08:30,0.440,0.256,0.469,0.406,0.386,0.207,0.183,-,CALM,No
2016/05/23,08:40,0.445,0.255,0.468,0.410,0.391,0.208,0.180,north,0.7,No
2016/05/23,08:50,0.444,0.256,0.462,0.412,0.393,0.208,0.182,north,0.5,No
2016/05/23,09:00,0.442,0.259,0.469,0.410,0.390,0.209,0.182,-,CALM,No
2016/05/23,09:10,0.440,0.258,0.467,0.409,0.389,0.208,0.181,south-southeast,0.5,No
2016/05/23,09:20,0.442,0.257,0.466,0.405,0.386,0.209,0.181,south-southeast,1.5,No
2016/05/23,09:30,0.445,0.257,0.465,0.405,0.386,0.210,0.181,southeast,1.4,No
2016/05/23,09:40,0.445,0.255,0.470,0.407,0.393,0.208,0.182,south-southeast,1.3,No
2016/05/23,09:50,0.441,0.255,0.466,0.407,0.393,0.207,0.182,south,2.2,No
2016/05/23,10:00,0.441,0.255,0.462,0.409,0.392,-,0.180,south-southeast,3.4,No
2016/05/23,10:10,0.439,0.258,0.467,0.408,0.389,-,0.181,south-southeast,4.2,No
2016/05/23,10:20,0.440,0.259,0.469,0.410,0.388,-,0.182,south-southeast,4.2,No
2016/05/23,10:30,0.449,0.259,0.465,0.414,0.389,-,0.182,south,3.9,No
2016/05/23,10:40,0.449,0.258,0.462,0.415,0.394,-,0.182,south,3.9,No
2016/05/23,10:50,0.445,0.255,0.461,0.411,0.393,-,0.182,south,3.4,No
2016/05/23,11:00,0.442,0.257,0.464,0.411,0.391,-,0.181,south,3.8,No
2016/05/23,11:10,0.441,0.255,0.462,0.410,0.390,-,0.183,south-southeast,3.3,No
2016/05/23,11:20,0.442,0.258,0.462,0.409,0.388,-,0.183,south,3.8,No
2016/05/23,11:30,0.447,0.260,0.468,0.408,0.387,-,0.181,south,2.5,No
2016/05/23,11:40,0.446,0.259,0.468,0.409,0.387,-,0.182,south,2.8,No
2016/05/23,11:50,0.442,0.257,0.466,0.415,0.386,-,0.183,south,3.6,No
2016/05/23,12:00,0.442,0.257,0.464,0.413,0.388,-,0.182,south-southwest,2.4,No
2016/05/23,12:10,0.441,0.256,0.464,0.412,0.390,-,0.181,south-southeast,2.3,No
2016/05/23,12:20,0.441,0.255,0.465,0.410,0.388,-,0.181,south,3.8,No
2016/05/23,12:30,0.442,0.255,0.465,0.411,0.389,-,0.182,south,4.5,No
2016/05/23,12:40,0.448,0.257,0.465,0.411,0.388,-,0.182,south,4.7,No
2016/05/23,12:50,0.447,0.260,0.464,0.410,0.389,-,0.181,south,4.7,No
2016/05/23,13:00,0.444,0.260,0.463,0.407,0.394,-,0.181,south,4.8,No
2016/05/23,13:10,0.441,0.259,0.466,0.407,0.393,-,0.180,south,5.7,No
2016/05/23,13:20,0.449,0.257,0.462,0.407,0.392,-,0.181,south,6.3,No
2016/05/23,13:30,0.446,0.256,0.463,0.409,0.393,-,0.183,south,5.5,No
2016/05/23,13:40,0.442,0.256,0.465,0.409,0.389,-,0.182,south,5.0,No
2016/05/23,13:50,0.443,0.255,0.463,0.411,0.389,-,0.181,south-southwest,4.5,No
2016/05/23,14:00,0.441,0.257,0.466,0.410,0.389,-,0.180,south-southwest,5.3,No
2016/05/23,14:10,0.440,0.255,0.465,0.409,0.389,-,0.180,south-southwest,5.0,No
2016/05/23,14:20,0.443,0.258,0.466,0.411,0.390,-,0.181,south,5.7,No
2016/05/23,14:30,0.444,0.260,0.466,0.411,0.391,-,0.182,south,5.4,No
2016/05/23,14:40,0.447,0.258,0.466,0.412,0.391,-,0.183,south,5.5,No
2016/05/23,14:50,0.444,0.259,0.468,0.413,0.390,-,0.181,south-southwest,6.0,No
2016/05/23,15:00,0.442,0.256,0.467,0.416,0.392,0.210,0.180,south,5.6,No
2016/05/23,15:10,0.442,0.257,0.466,0.418,0.390,0.209,0.181,south,6.1,No
2016/05/23,15:20,0.449,0.256,0.466,0.412,0.390,0.209,0.183,south-southwest,6.4,No
2016/05/23,15:30,0.446,0.257,0.468,0.414,0.390,0.209,0.181,south,5.4,No
2016/05/23,15:40,0.445,0.255,0.468,0.418,0.392,0.208,0.181,south-southwest,5.3,No
2016/05/23,15:50,0.441,0.258,0.467,0.414,0.391,0.208,0.181,south-southwest,5.3,No
2016/05/23,16:00,0.448,0.262,0.465,0.410,0.391,0.208,0.182,south,5.4,No
2016/05/23,16:10,0.449,0.260,0.464,0.416,0.391,0.209,0.182,south,5.3,No
2016/05/23,16:20,0.445,0.259,0.471,0.417,0.392,0.208,0.182,south,5.6,No
2016/05/23,16:30,0.442,0.259,0.471,0.414,0.392,0.209,0.182,south,5.6,No
2016/05/23,16:40,0.444,0.261,0.468,0.409,0.390,0.208,0.181,south,4.8,No
2016/05/23,16:50,0.447,0.259,0.465,0.415,0.391,0.209,0.183,south,4.3,No
2016/05/23,17:00,0.444,0.257,0.470,0.416,0.390,0.208,0.183,south,3.9,No
2016/05/23,17:10,0.442,0.261,0.472,0.412,0.390,0.210,0.181,south,3.0,No
2016/05/23,17:20,0.447,0.258,0.468,0.410,0.387,0.207,0.182,south,4.2,No
2016/05/23,17:30,0.448,0.257,0.465,0.417,0.390,0.210,0.183,south,4.5,No
2016/05/23,17:40,0.443,0.260,0.471,0.415,0.390,0.208,0.180,south,3.4,No
2016/05/23,17:50,0.445,0.258,0.470,0.410,0.387,0.208,0.183,south,5.3,No
2016/05/23,18:00,0.450,0.257,0.466,0.414,0.387,0.210,0.181,south,5.0,No
2016/05/23,18:10,0.446,0.260,0.470,0.416,0.388,0.209,0.181,south,3.2,No
2016/05/23,18:20,0.448,0.259,0.474,0.413,0.397,0.209,0.183,south,4.1,No
2016/05/23,18:30,0.449,0.259,0.467,0.415,0.393,0.209,0.181,south-southwest,2.6,No
2016/05/23,18:40,0.445,0.259,0.471,0.416,0.390,0.209,0.183,south-southwest,4.2,No
2016/05/23,18:50,0.449,0.258,0.471,0.413,0.396,0.209,0.181,south-southwest,4.2,No
2016/05/23,19:00,0.450,0.259,0.468,0.417,0.396,0.209,0.182,south-southwest,6.2,No
2016/05/23,19:10,0.444,0.259,0.473,0.416,0.391,0.209,0.181,south-southwest,4.6,No
2016/05/23,19:20,0.450,0.260,0.471,0.414,0.398,0.209,0.182,south-southwest,5.5,No
2016/05/23,19:30,0.445,0.259,0.468,0.417,0.393,0.211,0.182,south-southwest,5.5,No
2016/05/23,19:40,0.449,0.259,0.473,0.411,0.392,0.209,0.182,south-southwest,4.8,No
2016/05/23,19:50,0.448,0.259,0.469,0.418,0.396,0.210,0.182,south-southwest,3.9,No
2016/05/23,20:00,0.445,0.259,0.474,0.415,0.391,0.209,0.183,south-southwest,4.2,No
2016/05/23,20:10,0.449,0.259,0.472,0.414,0.395,0.209,0.181,south-southwest,4.4,No
2016/05/23,20:20,0.446,0.259,0.472,0.418,0.392,0.209,0.184,south-southwest,4.1,No
2016/05/23,20:30,0.450,0.260,0.471,0.411,0.393,0.210,0.183,south-southwest,3.6,No
2016/05/23,20:40,0.447,0.260,0.470,0.416,0.394,0.210,0.182,south-southwest,3.2,No
2016/05/23,20:50,0.450,0.259,0.474,0.413,0.389,0.211,0.182,south-southwest,3.8,No
2016/05/23,21:00,0.447,0.259,0.469,0.419,0.396,0.210,0.182,southwest,3.6,No
2016/05/23,21:10,0.446,0.260,0.474,0.413,0.392,0.209,0.183,south-southwest,3.6,No
2016/05/23,21:20,0.446,0.259,0.469,0.415,0.393,0.210,0.182,south-southwest,4.7,No
2016/05/23,21:30,0.445,0.261,0.471,0.417,0.393,0.210,0.182,south-southwest,5.6,No
2016/05/23,21:40,0.450,0.259,0.472,0.414,0.390,0.209,0.182,south-southwest,6.2,No
2016/05/23,21:50,0.446,0.260,0.469,0.416,0.393,0.210,0.182,south-southwest,5.0,No
2016/05/23,22:00,0.450,0.258,0.471,0.414,0.389,0.209,0.181,south-southwest,3.6,No
2016/05/23,22:10,0.445,0.260,0.467,0.417,0.396,0.210,0.184,southwest,3.5,No
2016/05/23,22:20,0.449,0.257,0.474,0.414,0.390,0.210,0.182,west-southwest,3.9,No
2016/05/23,22:30,0.445,0.259,0.467,0.416,0.392,0.210,0.183,west-southwest,3.2,No
2016/05/23,22:40,0.449,0.259,0.473,0.413,0.393,0.210,0.183,west-southwest,3.1,No
2016/05/23,22:50,0.446,0.259,0.467,0.416,0.388,0.210,0.182,west-southwest,3.1,No
2016/05/23,23:00,0.447,0.258,0.471,0.415,0.394,0.210,0.181,west,2.9,No
2016/05/23,23:10,0.449,0.260,0.471,0.414,0.391,0.209,0.182,-,CALM,No
2016/05/23,23:20,0.446,0.259,0.469,0.415,0.392,0.209,0.183,east,0.9,No
2016/05/23,23:30,0.449,0.261,0.472,0.414,0.391,0.210,0.182,southeast,0.5,No
2016/05/23,23:40,0.446,0.259,0.468,0.418,0.391,0.210,0.183,east-southeast,1.1,No
2016/05/23,23:50,0.450,0.260,0.473,0.415,0.396,0.209,0.184,east,1.0,No
